Location: Newark
(30.0333°N, 31.2167°E)
Time: 19:17:35
(UTC+00:00)

Vanguard 3 - Pass Details

Date: 25 January 2020
Orbit: 508 x 3263 km, 33.3° (Epoch: 19 February)

Event Time Altitude Azimuth Distance (km) Brightness Sun altitude
Rises 18:11:10 0° 276° (W) 7,231 13.0 -35.7°
Reaches altitude 10° 18:16:13 10° 277° (W) 6,151 12.3 -36.8°
Maximum altitude 18:35:24 80° 5° (N) 2,541 9.3 -40.9°
Enters shadow 18:36:26 77° 44° (NE) 2,499 9.2 -41.2°
